Location: Unspecified
(44.4377°N, 88.0525°W)
Time: 18:48:54
(UTC-05:00)

Okean 3 - Visible Passes

Search period start: 02 September 2015 00:00
Search period end: 12 September 2015 00:00
Orbit: 581 x 604 km, 82.5° (Epoch: 02 September)

Date Brightness Start Highest point End Pass type
(mag) Time Alt. Az. Time Alt. Az. Time Alt. Az.
02 Sep 5.1 04:32:03 10° SSE 04:35:55 35° E 04:39:53 10° NNE visible
03 Sep 4.3 04:40:40 10° S 04:44:50 53° E 04:49:04 10° NNE visible
04 Sep 3.5 04:49:30 10° S 04:53:47 82° E 04:58:08 10° N visible
05 Sep 6.5 03:24:38 10° ESE 03:25:59 12° E 03:27:33 10° ENE visible
05 Sep 3.5 04:59:01 13° SSW 05:02:47 66° W 05:07:06 10° N visible
06 Sep 6.1 03:32:03 10° SE 03:34:48 17° E 03:37:43 10° NE visible
06 Sep 3.9 05:08:40 16° SW 05:11:50 43° WNW 05:15:58 10° N visible
07 Sep 5.5 03:41:37 18° SE 03:43:40 25° E 03:47:16 10° NNE visible
07 Sep 4.5 05:18:15 16° SW 05:20:55 29° WNW 05:24:42 10° NNW visible
08 Sep 4.8 03:51:09 29° SE 03:52:33 37° E 03:56:35 10° NNE visible
08 Sep 5.0 05:27:48 14° WSW 05:30:05 20° WNW 05:33:16 10° NNW visible
09 Sep 4.0 04:00:39 48° SE 04:01:28 57° E 04:05:45 10° NNE visible
09 Sep 5.4 05:37:17 11° W 05:39:17 14° WNW 05:41:31 10° NW visible
10 Sep 3.4 04:10:06 77° S 04:10:25 88° E 04:14:47 10° N visible
11 Sep 6.4 02:42:53 12° E 02:42:53 12° E 02:44:29 10° ENE visible
11 Sep 3.5 04:19:31 61° WNW 04:19:31 61° WNW 04:23:43 10° N visible
